Hourly Data Report for October 04, 2014

All times are specified in Local Standard Time (LST). Add 1 hour to adjust for Daylight Saving Time where and when it is observed.

IQALUIT CLIMATE
NUNAVUT

63°44'50.000" N
68°32'40.000" W
33.50 m
2402592
71321
XFB

Download Data

Hourly Data (October 2014)
Hourly Data Report for October 4, 2014
Temp Definition
°C
Dew Point Temp Definition
°C
Rel Hum Definition
%
Wind Dir Definition
10's deg

Wind Spd Definition
km/h
Visibility Definition
km
Stn Press Definition
kPa
Hmdx Definition


Wind Chill Definition


Weather Definition


TIME
00:00 -0.9 -2.6 88 13 11   100.94   -5 LegendNANA
01:00 -1.3 -2.6 91 13 11   100.98   -5 LegendNANA
02:00 -1.6 -2.7 92 13 6   101.00   -4 LegendNANA
03:00 -1.2 -2.4 91 12 7   101.04   -4 LegendNANA
04:00 -0.7 -2.6 87 14 9   101.08   -4 LegendNANA
05:00 -0.6 -2.4 87 12 12   101.13   -5 LegendNANA
06:00 -0.5 -2.6 86 13 15   101.18   -5 LegendNANA
07:00 -0.7 -2.4 88 12 11   101.18   -4 LegendNANA
08:00 -0.4 -2.6 85 13 14   101.23   -5 LegendNANA
09:00 -0.1 -2.7 83 12 14   101.27   -4 LegendNANA
10:00 -0.1 -2.8 82 12 16   101.28   -5 LegendNANA
11:00 0.2 -2.7 81 12 16   101.31     LegendNANA
12:00 0.3 -2.6 81 13 15   101.33     LegendNANA
13:00 0.2 -2.1 85 14 15   101.35     LegendNANA
14:00 0.1 -1.7 88 14 13   101.39     LegendNANA
15:00 0.1 -3.6 76 13 26   101.45     LegendNANA
16:00 -0.6 -4.2 77 11 20   101.48   -6 LegendNANA
17:00 -0.9 -4.7 76 10 21   101.51   -7 LegendNANA
18:00 -1.1 -5.2 74 11 23   101.54   -7 LegendNANA
19:00 -0.7 -4.6 75 11 25   101.52   -7 LegendNANA
20:00 -0.5 -4.8 73 12 25   101.53   -7 LegendNANA
21:00 -0.7 -4.7 74 11 24   101.57   -7 LegendNANA
22:00 -0.5 -4.3 75 12 27   101.56   -7 LegendNANA
23:00 -0.2 -3.7 77 12 22   101.57   -6 LegendNANA

Notes on Data Quality.

Legend

  • E = Estimated
  • M = Missing
  • NA = Not Available
  • ‡ = Partner data that is not subject to review by the National Climate Archives
Date modified: